Regional Weather Roundup
Issued by NWS

Home | Current Version | Previous Version | Text Only | Print | Product List | Glossary Off
Versions: 1 2 3 4 5 6 7 8 9 10 11 12 13 14 15 16 17 18 19 20 21 22 23 24 25 26 27 28 29 30 31 32 33 34 35 36 37 38 39 40 41 42 43 44 45 46 47 48 49 50

000
ASUS43 KMPX 221801
RWRMN
WEATHER ROUNDUP FOR MINNESOTA
NATIONAL WEATHER SERVICE TWIN CITIES/CHANHASSEN MN
1200 PM CST WED NOV 22 2017


NOTE: "FAIR" INDICATES FEW OR NO CLOUDS BELOW 12,000 FEET WITH NO
SIGNIFICANT WEATHER AND/OR OBSTRUCTIONS TO VISIBILITY. N/A MEANS
CURRENT SKY AND/OR WEATHER CONDITIONS ARE NOT AVAILABLE.

MNZ060>063-068>070-221900-
   Twin Cities Metro

CITY           SKY/WX    TMP DP  RH WIND       PRES   REMARKS
TWIN CITIES    CLOUDY    23  13  65 S8        30.24F WCI  14
6HR MIN TEMP:  15; 6HR MAX TEMP:  23;

ST PAUL        CLOUDY    24  13  62 S9        30.26F WCI  14
CRYSTAL        CLOUDY    23  10  57 S10       30.22F WCI  12
BLAINE         CLOUDY    25  12  58 SW9       30.22F WCI  15
LAKEVILLE      CLOUDY    21  14  73 S8        30.23F WCI  12
EDEN PRAIRIE   CLOUDY    25  14  63 S9        30.23F WCI  15
6HR MIN TEMP:  13; 6HR MAX TEMP:  25;

SOUTH ST PAUL  CLOUDY    24  13  64 SW9       30.25F WCI  14
LAKE ELMO      FAIR      25  14  63 S10       30.24F WCI  15
$$
MNZ001>005-007-008-013>017-022>024-027-028-221900-
   Northwest Minnesota

CITY           SKY/WX    TMP DP  RH WIND       PRES   REMARKS
BEMIDJI        LGT SNOW  17  13  86 S9        30.06F WCI   5
HALLOCK        LGT SNOW  18  16  93 S15       29.99F WCI   3
ROSEAU         LGT SNOW  18  12  79 S13       30.01F WCI   4
WARROAD        LGT SNOW  16  12  86 S8G16     30.02F WCI   5
THIEF RVR FALL LGT SNOW  18  14  86 S13       30.01F FOG     WCI   4
CROOKSTON      FLURRIES  21  14  73 S17       30.01F WCI   7
FOSSTON        LGT SNOW  18  10  73 S17       30.04F WCI   2
DETROIT LAKES  CLOUDY    23  14  68 S15       30.05F WCI  10
MOORHEAD       MOSUNNY   25  10  54 S17       30.03F WCI  11
PARK RAPIDS    LGT SNOW  19  12  74 S13       30.06F WCI   6
MAHNOMEN       CLOUDY    20  14  75 S13G18    30.03F WCI   8
$$
MNZ006-009>011-018-025>026-221900-
   North Central Minnesota

CITY           SKY/WX    TMP DP  RH WIND       PRES   REMARKS
BAUDETTE       LGT SNOW  15  11  83 S8        30.04F FOG     WCI   4
FLAG ISLAND    LGT SNOW  16  10  79 S9        30.02F VSB 1   WCI   4
INTL FALLS     LGT SNOW  16  11  80 S9        30.07F WCI   4
6HR MIN TEMP:   2; 6HR MAX TEMP:  16; 6HR PCP: TRACE;

WASKISH        LGT SNOW  18  12  79 SW6       30.07S WCI   9
BIG FORK       CLOUDY    19  14  79 S7        30.07F WCI  10
LONGVILLE      LGT SNOW  19  12  73 S10G16    30.10F WCI   8
GRAND RAPIDS   CLOUDY    19  15  84 S10       30.11F WCI   7
CRANE LAKE     CLOUDY    16  10  79 S5        30.12F WCI   9
ORR            CLOUDY    16  10  79 S7        30.06F WCI   6
COOK           CLOUDY    18  10  73 S8        30.10F WCI   7
WALKER         LGT SNOW  17  13  83 S8        30.07F WCI   7
$$
MNZ012-019>021-037-221900-
   Northeast Minnesota

CITY           SKY/WX    TMP DP  RH WIND       PRES   REMARKS
DULUTH         CLOUDY    18  11  74 SW10      30.13F WCI   6
6HR MIN TEMP:   8; 6HR MAX TEMP:  18;

ELY            CLOUDY    18   9  68 SW8       30.09F WCI   7
HIBBING        CLOUDY    17  10  74 S7        30.10F WCI   8
EVELETH        CLOUDY    18   9  68 SW9       30.12F WCI   6
DULUTH HARBOR  MOSUNNY   23  14  68 SW10      30.20F WCI  12
TWO HARBORS    MOSUNNY   23  12  63 SW7       30.14F WCI  15
SILVER BAY     CLOUDY    21  12  68 SW6       30.14F WCI  14
GRAND MARAIS     N/A     24  17  74 SW17      30.16F WCI  11
G MARAIS ARPRT CLOUDY    18   7  62 SW5       30.07F WCI  11
$$
MNZ029>031-032-039>041-046>048-054>057-064-221900-
   West Central Minnesota

CITY           SKY/WX    TMP DP  RH WIND       PRES   REMARKS
FERGUS FALLS   CLOUDY    25  12  58 S18       30.09F WCI  11
WHEATON        CLOUDY    27  12  54 S14       30.09F WCI  15
MORRIS         PTSUNNY   27  12  54 S18G24    30.09F WCI  13
ALEXANDRIA     CLOUDY    23  12  62 S16       30.10F WCI  10
ELBOW LAKE     CLOUDY    25  13  59 S18       30.08F HAZE    WCI  11
WADENA         PTSUNNY   19  12  73 S14       30.08F WCI   6
GLENWOOD       MOSUNNY   23  12  63 S14       30.11F WCI  11
APPLETON       MOSUNNY   27  12  54 S12G18    30.11F WCI  16
BENSON         MOSUNNY   27  10  50 SW16G22   30.13F WCI  14
ORTONVILLE     CLOUDY    27  12  54 MISG      30.08F
MADISON        MOSUNNY   32  14  47 S14       30.10F WCI  22
WILLMAR        FAIR      27  16  63 S7        30.15F WCI  19
$$
MNZ033>034-036-042>043-049>051-058-059-221900-
   Central Minnesota

CITY           SKY/WX    TMP DP  RH WIND       PRES   REMARKS
ST CLOUD       CLOUDY    21  12  68 S13       30.18F WCI   9
6HR MIN TEMP:   9; 6HR MAX TEMP:  21;

SAUK CENTRE    FAIR      21  12  67 S15       30.13F WCI   8
PAYNESVILLE    CLOUDY    22  15  71 S10       30.16F WCI  12
AITKIN         CLOUDY    18  10  73 S10       30.13F WCI   6
PINE RIVER     LGT SNOW  18  12  79 S9G16     30.14F WCI   6
BRAINERD       LGT SNOW  20  13  74 S13       30.14F WCI   7
STAPLES        CLOUDY    19  12  73 S13       30.10F WCI   7
LITTLE FALLS   CLOUDY    21   9  58 S12       30.17F WCI   9
LITCHFIELD     CLOUDY    25  16  68 S6        30.17F WCI  18
BUFFALO        CLOUDY    21  12  68 S7        30.22F WCI  13
MAPLE LAKE     CLOUDY    23  15  73 S6        30.21F WCI  15
HUTCHINSON     CLOUDY    24  14  65 S10       30.20F WCI  13
$$
MNZ037-044-045-052-053-221900-
   East Central Minnesota

CITY           SKY/WX    TMP DP  RH WIND       PRES   REMARKS
PRINCETON      CLOUDY    23  14  68 S8        30.20F WCI  14
MORA           CLOUDY    21  14  73 S12       30.21F WCI   9
CAMBRIDGE      CLOUDY    25  12  58 S8        30.21F WCI  16
RUSH CITY      CLOUDY    21  14  73 S7        30.21F WCI  13
MOOSE LAKE     CLOUDY    21  12  68 S9G17     30.15F WCI  11
HINCKLEY       FAIR      23  14  68 S10G16    30.19F WCI  12
CLOQUET        CLOUDY    19  10  68 S10       30.14F WCI   8
MCGREGOR       CLOUDY    21  14  73 S9        30.16S WCI  11
$$
MNZ071>073-080-081-089-090-097-098-221900-
   Southwest Minnesota

CITY           SKY/WX    TMP DP  RH WIND       PRES   REMARKS
MONTEVIDEO     CLOUDY    27  12  54 SW14G21   30.12F WCI  15
GRANITE FALLS  CLOUDY    30  15  52 S16       30.16F WCI  19
CANBY          CLOUDY    31  13  46 S12G18    30.12  WCI  22
MARSHALL       CLOUDY    30  14  51 S20G25    30.13F WCI  17
REDWOOD FALLS  CLOUDY    27  10  49 S16       30.17F WCI  15
OLIVIA         MOSUNNY   28  14  54 S15G21    30.17F WCI  17
PIPESTONE      SUNNY     28  10  47 SW18      30.11F WCI  16
WINDOM         MOSUNNY   28  10  47 S17       30.18F WCI  16
WORTHINGTON    MOSUNNY   29  13  51 S22       30.16F WCI  15
JACKSON        MOSUNNY   28  12  50 S18       30.19F WCI  16
SLAYTON        PTSUNNY   27  -6  23 S22G28    30.16F WCI  13
$$
MNZ065>067-074>077-082>085-091>093-221900-
   South Central Minnesota

CITY           SKY/WX    TMP DP  RH WIND       PRES   REMARKS
MANKATO        CLOUDY    24  13  62 S12       30.22F WCI  13
NEW ULM        MOSUNNY   25  10  54 CALM      30.21F
ST JAMES       CLOUDY    27  12  54 S14       30.21F WCI  15
FAIRMONT       CLOUDY    27  13  55 S15       30.22F WCI  15
GLENCOE        CLOUDY    24  15  67 S8        30.21F WCI  15
FARIBAULT      CLOUDY    25  16  68 S7        30.24F WCI  17
OWATONNA       MOSUNNY   27  16  63 SW10      30.23F WCI  17
WASECA         CLOUDY    27  14  59 S13       30.25F WCI  16
ALBERT LEA     CLOUDY    27  12  54 S8        30.24F WCI  18
$$
MNZ078>079-086>088-094>096-221900-
   Southeast Minnesota

CITY           SKY/WX    TMP DP  RH WIND       PRES   REMARKS
ROCHESTER      CLOUDY    26  15  63 S12       30.25F WCI  16
6HR MIN TEMP:  11; 6HR MAX TEMP:  26;

RED WING       MOSUNNY   25  10  54 S7        30.26F WCI  17
STANTON        CLOUDY    27  15  61 SW9       30.24F WCI  17
DODGE CENTER   CLOUDY    25  14  63 S10       30.23F WCI  15
WINONA         CLOUDY    30  16  55 S5        30.30F WCI  25
AUSTIN         CLOUDY    25  14  63 SW10      30.25F WCI  15
PRESTON        MOSUNNY   26  13  59 SW8       30.27F WCI  17
$$
ABBREVIATIONS USED IN REMARKS
   TC - TEMPERATURES IN CELSIUS
  WCI - WIND CHILL INDEX
   HX - HEAT INDEX
  VSB - VISIBILITY
$$




USA.gov is the U.S. government's official web portal to all federal, state and local government web resources and services.